Weather History for Mora, MN

Change the Weather History Date:

Monday, July 14, 2014

  Actual Average Record
Temperature  
Mean Temperature 54 °F -  
Max Temperature 59 °F 83 °F 102 °F (1936)
Min Temperature 50 °F 56 °F 40 °F (1987)
Degree Days  
Heating Degree Days 10    
Growing Degree Days 4 (Base 50)    
Moisture  
Dew Point 48 °F    
Average Humidity 80    
Maximum Humidity 94    
Minimum Humidity 63    
Precipitation  
Precipitation 0.76 in - - ()
Sea Level Pressure  
Sea Level Pressure 29.96 in    
Wind  
Wind Speed 6 mph (NW)    
Max Wind Speed 18 mph    
Max Gust Speed 24 mph    
Visibility 8 miles    
Events Rain    
Averages and records for this station are not official NWS values.
T = Trace of Precipitation, MM = Missing Value Source: NWS Daily Summary

Daily Weather History Graph

Daily Weather History Graph

Search for Another Location

Airport:

Trip Planner

Search our weather history database for the weather conditions in past years. The results will help you decide how hot, cold, wet, or windy it might be!

Date:

Astronomy

Jul. 14, 2014 Rise Set
Actual Time 5:36 AM CDT 9:00 PM CDT
Civil Twilight 4:59 AM CDT 9:37 PM CDT
Nautical Twilight 4:11 AM CDT 10:25 PM CDT
Astronomical Twilight 3:08 AM CDT 11:27 PM CDT
Moon 10:17 PM CDT (7/14) 8:31 AM CDT (7/14)
Length of Visible Light 16h 38m
Length of Day
15h 24m
Waning Gibbous, 93% of the Moon is Illuminated
Jul 14
Waning Gibbous
Jul 18
Last Quarter
Jul 26
New
Aug 3
First Quarter
Aug 10
Full

Hourly Weather History & Observations

Time (CDT) Temp. Dew Point Humidity Pressure Visibility Wind Dir Wind Speed Gust Speed Precip Events Conditions
12:13 AM 59.0 °F 46.4 °F 63% 29.91 in 10.0 mi NW 10.4 mph - N/A   Clear
12:33 AM 55.4 °F 46.4 °F 72% 29.91 in 10.0 mi NNW 3.5 mph - N/A   Clear
12:53 AM 55.4 °F 46.4 °F 72% 29.91 in 10.0 mi Calm Calm - N/A   Scattered Clouds
1:13 AM 55.4 °F 46.4 °F 72% 29.91 in 10.0 mi Calm Calm - N/A   Mostly Cloudy
1:33 AM 55.4 °F 48.2 °F 77% 29.90 in 10.0 mi Calm Calm - N/A   Mostly Cloudy
1:53 AM 55.4 °F 48.2 °F 77% 29.90 in 10.0 mi Calm Calm - N/A   Overcast
2:13 AM 55.4 °F 48.2 °F 77% 29.90 in 10.0 mi Calm Calm - N/A   Overcast
2:33 AM 55.4 °F 48.2 °F 77% 29.90 in 10.0 mi West 3.5 mph - N/A   Overcast
2:53 AM 55.4 °F 48.2 °F 77% 29.89 in 10.0 mi West 3.5 mph - N/A   Overcast
3:13 AM 55.4 °F 48.2 °F 77% 29.89 in 10.0 mi West 3.5 mph - N/A   Mostly Cloudy
3:33 AM 55.4 °F 48.2 °F 77% 29.89 in 10.0 mi Calm Calm - N/A   Overcast
3:53 AM 55.4 °F 48.2 °F 77% 29.88 in 10.0 mi West 3.5 mph - N/A   Overcast
4:13 AM 55.4 °F 48.2 °F 77% 29.88 in 10.0 mi West 5.8 mph - N/A   Mostly Cloudy
4:33 AM 55.4 °F 48.2 °F 77% 29.88 in 10.0 mi West 3.5 mph - N/A   Mostly Cloudy
4:53 AM 55.4 °F 46.4 °F 72% 29.88 in 10.0 mi West 5.8 mph - N/A   Mostly Cloudy
5:13 AM 55.4 °F 46.4 °F 72% 29.88 in 10.0 mi West 5.8 mph - N/A   Scattered Clouds
5:33 AM 55.4 °F 46.4 °F 72% 29.88 in 10.0 mi West 5.8 mph - N/A   Scattered Clouds
5:53 AM 55.4 °F 46.4 °F 72% 29.88 in 10.0 mi WNW 11.5 mph 16.1 mph N/A Rain Light Rain
6:13 AM 55.4 °F 48.2 °F 77% 29.89 in 10.0 mi NW 11.5 mph 17.3 mph N/A   Mostly Cloudy
6:33 AM 53.6 °F 46.4 °F 77% 29.90 in 10.0 mi NW 8.1 mph - N/A   Scattered Clouds
6:53 AM 55.4 °F 46.4 °F 72% 29.90 in 10.0 mi NW 18.4 mph 24.2 mph N/A   Scattered Clouds
7:13 AM 53.6 °F 46.4 °F 77% 29.91 in 10.0 mi NW 10.4 mph - N/A   Mostly Cloudy
7:33 AM 53.6 °F 44.6 °F 72% 29.91 in 10.0 mi WNW 10.4 mph 17.3 mph N/A   Mostly Cloudy
7:53 AM 53.6 °F 44.6 °F 72% 29.92 in 10.0 mi WNW 11.5 mph 17.3 mph N/A   Mostly Cloudy
8:13 AM 53.6 °F 46.4 °F 77% 29.92 in 10.0 mi WNW 6.9 mph - N/A   Scattered Clouds
8:53 AM 55.4 °F 44.6 °F 67% 29.92 in 10.0 mi NW 11.5 mph 21.9 mph N/A   Mostly Cloudy
9:13 AM 51.8 °F 46.4 °F 82% 29.93 in 4.0 mi NW 5.8 mph - N/A Rain Rain
9:33 AM 51.8 °F 44.6 °F 76% 29.94 in 4.0 mi WNW 15.0 mph 20.7 mph N/A Rain Light Rain
9:53 AM 53.6 °F 46.4 °F 77% 29.94 in 5.0 mi NW 13.8 mph 17.3 mph N/A   Haze
10:13 AM 51.8 °F 44.6 °F 76% 29.95 in 4.0 mi WNW 13.8 mph 19.6 mph N/A   Haze
10:33 AM 55.4 °F 46.4 °F 72% 29.94 in 10.0 mi NW 16.1 mph 20.7 mph N/A   Mostly Cloudy
10:53 AM 55.4 °F 46.4 °F 72% 29.95 in 10.0 mi NW 13.8 mph 20.7 mph N/A   Mostly Cloudy
11:13 AM 55.4 °F 46.4 °F 72% 29.95 in 10.0 mi WNW 11.5 mph 18.4 mph N/A   Mostly Cloudy
11:33 AM 53.6 °F 46.4 °F 77% 29.95 in 7.0 mi WNW 15.0 mph 19.6 mph N/A   Light Drizzle
11:53 AM 53.6 °F 48.2 °F 82% 29.96 in 5.0 mi WNW 8.1 mph 21.9 mph N/A Rain Light Rain
12:13 PM 51.8 °F 46.4 °F 82% 29.96 in 5.0 mi WNW 10.4 mph - 0.01 in Rain Rain
12:33 PM 51.8 °F 48.2 °F 88% 29.96 in 4.0 mi NNW 5.8 mph - 0.06 in Rain Light Rain
12:53 PM 51.8 °F 46.4 °F 82% 29.95 in 2.5 mi NNW 6.9 mph - 0.13 in Rain Rain
1:13 PM 55.4 °F 51.8 °F 88% 29.95 in 7.0 mi NNW 6.9 mph - N/A   Mostly Cloudy
1:33 PM 53.6 °F 50.0 °F 88% 29.96 in 4.0 mi NW 11.5 mph 19.6 mph 0.02 in Rain Rain
1:53 PM 53.6 °F 50.0 °F 88% 29.96 in 5.0 mi NW 15.0 mph 20.7 mph 0.04 in Rain Light Rain
2:13 PM 53.6 °F 50.0 °F 88% 29.96 in 7.0 mi NW 12.7 mph 17.3 mph 0.01 in Rain Rain
2:33 PM 53.6 °F 50.0 °F 88% 29.96 in 5.0 mi NW 13.8 mph 18.4 mph 0.06 in Rain Rain
3:13 PM 53.6 °F 50.0 °F 88% 29.97 in 3.0 mi North 3.5 mph - 0.08 in Rain Rain
3:53 PM 55.4 °F 51.8 °F 88% 29.96 in 10.0 mi WNW 9.2 mph - 0.09 in Rain Light Rain
4:33 PM 55.4 °F 51.8 °F 88% 29.97 in 10.0 mi NNW 8.1 mph - 0.02 in   Mostly Cloudy
5:13 PM 59.0 °F 51.8 °F 77% 29.98 in 10.0 mi NW 9.2 mph - N/A   Mostly Cloudy
5:33 PM 55.4 °F 50.0 °F 82% 29.98 in 4.0 mi NW 4.6 mph - 0.06 in Rain Heavy Rain
5:53 PM 53.6 °F 50.0 °F 88% 29.99 in 10.0 mi NNW 4.6 mph - 0.14 in Rain Light Rain
6:13 PM 53.6 °F 50.0 °F 88% 30.01 in 3.0 mi NNW 11.5 mph 18.4 mph 0.09 in Rain Heavy Rain
6:33 PM 51.8 °F 46.4 °F 82% 30.01 in 7.0 mi North 4.6 mph - 0.14 in Rain Light Rain
6:53 PM 53.6 °F 50.0 °F 88% 30.01 in 10.0 mi Calm Calm - 0.14 in Rain Light Rain
7:13 PM 51.8 °F 48.2 °F 88% 30.02 in 5.0 mi NNW 8.1 mph 17.3 mph 0.08 in Rain Rain
7:33 PM 51.8 °F 46.4 °F 82% 30.03 in 10.0 mi Calm Calm - 0.09 in Rain Light Rain
7:53 PM 51.8 °F 46.4 °F 82% 30.04 in 7.0 mi Calm Calm - 0.12 in Rain Rain
8:13 PM 51.8 °F 48.2 °F 88% 30.04 in 10.0 mi Calm Calm - 0.01 in Rain Light Rain
8:33 PM 51.8 °F 48.2 °F 88% 30.05 in 5.0 mi Calm Calm - 0.02 in   Heavy Drizzle
8:53 PM 51.8 °F 48.2 °F 88% 30.05 in 10.0 mi Calm Calm - 0.02 in   Mostly Cloudy
9:13 PM 51.8 °F 50.0 °F 94% 30.05 in 10.0 mi Calm Calm - N/A   Overcast
9:33 PM 53.6 °F 50.0 °F 88% 30.06 in 10.0 mi NNW 4.6 mph - N/A   Overcast
9:53 PM 53.6 °F 50.0 °F 88% 30.06 in 10.0 mi Calm Calm - N/A   Overcast
10:13 PM 53.6 °F 50.0 °F 88% 30.07 in 10.0 mi Calm Calm - N/A   Scattered Clouds
10:33 PM 51.8 °F 48.2 °F 88% 30.07 in 10.0 mi Calm Calm - N/A   Clear
10:53 PM 50.0 °F 46.4 °F 87% 30.07 in 10.0 mi Calm Calm - N/A   Clear
11:13 PM 50.0 °F 46.4 °F 87% 30.08 in 10.0 mi Calm Calm - N/A   Scattered Clouds
11:33 PM 50.0 °F 46.4 °F 87% 30.07 in 10.0 mi Calm Calm - N/A   Mostly Cloudy
11:53 PM 50.0 °F 46.4 °F 87% 30.08 in 10.0 mi Calm Calm - N/A   Mostly Cloudy